linux/drivers/gpio/
<<
>>
Prefs
Kconfig 42556 2019-06-25 03:34:56
Makefile 7261 2019-06-25 03:34:56
TODO 4334 2019-06-25 03:34:56
gpio-104-dio-48e.c 14605 2019-06-25 03:34:56
gpio-104-idi-48.c 9573 2019-06-25 03:34:56
gpio-104-idio-16.c 8428 2019-06-25 03:34:56
gpio-74x164.c 5090 2019-06-25 03:34:56
gpio-74xx-mmio.c 3720 2019-06-25 03:34:56
gpio-adnp.c 12447 2019-06-25 03:34:56
gpio-adp5520.c 4032 2019-06-25 03:34:56
gpio-adp5588.c 11326 2019-06-25 03:34:56
gpio-altera-a10sr.c 3666 2019-06-25 03:34:56
gpio-altera.c 10355 2019-06-25 03:34:56
gpio-amd-fch.c 4962 2019-06-25 03:34:56
gpio-amd8111.c 7001 2019-06-25 03:34:56
gpio-amdpt.c 4336 2019-06-25 03:34:56
gpio-arizona.c 5431 2019-06-25 03:34:56
gpio-aspeed.c 31550 2019-06-25 03:34:56
gpio-ath79.c 8796 2019-06-25 03:34:56
gpio-bcm-kona.c 18163 2019-06-25 03:34:56
gpio-bd9571mwv.c 3749 2019-06-25 03:34:56
gpio-brcmstb.c 21124 2019-06-25 03:34:56
gpio-bt8xx.c 7877 2019-06-25 03:34:56
gpio-cadence.c 7614 2019-06-25 03:34:56
gpio-clps711x.c 2233 2019-06-25 03:34:56
gpio-creg-snps.c 4445 2019-06-25 03:34:56
gpio-crystalcove.c 9750 2019-06-25 03:34:56
gpio-cs5535.c 9452 2019-06-25 03:34:56
gpio-da9052.c 6170 2019-06-25 03:34:56
gpio-da9055.c 4549 2019-06-25 03:34:56
gpio-davinci.c 17380 2019-06-25 03:34:56
gpio-dln2.c 13011 2019-06-25 03:34:56
gpio-dwapb.c 21129 2019-06-25 03:34:56
gpio-eic-sprd.c 19364 2019-06-25 03:34:56
gpio-em.c 10835 2019-06-25 03:34:56
gpio-ep93xx.c 12373 2019-06-25 03:34:56
gpio-exar.c 5517 2019-06-25 03:34:56
gpio-f7188x.c 14037 2019-06-25 03:34:56
gpio-ftgpio010.c 8976 2019-06-25 03:34:56
gpio-ge.c 2684 2021-08-29 15:04:50 -0700
gpio-gpio-mm.c 10776 2019-06-25 03:34:56
gpio-grgpio.c 11570 2019-06-25 03:34:56
gpio-gw-pld.c 3224 2021-08-29 15:04:50 -0700
gpio-hlwd.c 8648 2019-06-25 03:34:56
gpio-htc-egpio.c 10797 2019-06-25 03:34:56
gpio-ich.c 12309 2019-06-25 03:34:56
gpio-intel-mid.c 10262 2019-06-25 03:34:56
gpio-iop.c 1624 2019-06-25 03:34:56
gpio-it87.c 9906 2019-06-25 03:34:56
gpio-janz-ttl.c 4711 2019-06-25 03:34:56
gpio-kempld.c 5542 2019-06-25 03:34:56
gpio-ks8695.c 7075 2019-06-25 03:34:56
gpio-loongson.c 3244 2019-06-25 03:34:56
gpio-loongson1.c 2399 2019-06-25 03:34:56
gpio-lp3943.c 5608 2019-06-25 03:34:56
gpio-lp873x.c 4635 2019-06-25 03:34:56
gpio-lp87565.c 4780 2019-06-25 03:34:56
gpio-lpc18xx.c 10261 2019-06-25 03:34:56
gpio-lpc32xx.c 14550 2019-06-25 03:34:56
gpio-lynxpoint.c 11948 2019-06-25 03:34:56
gpio-madera.c 5860 2019-06-25 03:34:56
gpio-max3191x.c 14750 2019-06-25 03:34:56
gpio-max7300.c 1965 2019-06-25 03:34:56
gpio-max7301.c 2547 2019-06-25 03:34:56
gpio-max730x.c 5946 2019-06-25 03:34:56
gpio-max732x.c 18962 2019-06-25 03:34:56
gpio-max77620.c 9444 2019-06-25 03:34:56
gpio-mb86s7x.c 5481 2019-06-25 03:34:56
gpio-mc33880.c 4127 2019-06-25 03:34:56
gpio-mc9s08dz60.c 3104 2019-06-25 03:34:56
gpio-menz127.c 5207 2019-06-25 03:34:56
gpio-merrifield.c 12717 2019-06-25 03:34:56
gpio-ml-ioh.c 14997 2019-06-25 03:34:56
gpio-mm-lantiq.c 4129 2019-06-25 03:34:56
gpio-mmio.c 21135 2019-06-25 03:34:56
gpio-mockup.c 14001 2019-06-25 03:34:56
gpio-mpc5200.c 9753 2019-06-25 03:34:56
gpio-mpc8xxx.c 11266 2019-06-25 03:34:56
gpio-msic.c 7855 2019-06-25 03:34:56
gpio-mt7621.c 8267 2019-06-25 03:34:56
gpio-mvebu.c 33984 2019-06-25 03:34:56
gpio-mxc.c 15453 2019-06-25 03:34:56
gpio-mxs.c 10247 2019-06-25 03:34:56
gpio-octeon.c 3370 2019-06-25 03:34:56
gpio-omap.c 48604 2019-06-25 03:34:56
gpio-palmas.c 6024 2019-06-25 03:34:56
gpio-pca953x.c 32655 2019-06-25 03:34:56
gpio-pcf857x.c 12549 2019-06-25 03:34:56
gpio-pch.c 11917 2019-06-25 03:34:56
gpio-pci-idio-16.c 10760 2019-06-25 03:34:56
gpio-pcie-idio-24.c 16258 2019-06-25 03:34:56
gpio-pisosr.c 5086 2019-06-25 03:34:56
gpio-pl061.c 11150 2019-06-25 03:34:56
gpio-pmic-eic-sprd.c 10426 2019-06-25 03:34:56
gpio-pxa.c 20671 2019-06-25 03:34:56
gpio-raspberrypi-exp.c 6343 2019-06-25 03:34:56
gpio-rc5t583.c 4641 2019-06-25 03:34:56
gpio-rcar.c 15874 2019-06-25 03:34:56
gpio-rdc321x.c 5795 2019-06-25 03:34:56
gpio-reg.c 4773 2019-06-25 03:34:56
gpio-sa1100.c 7613 2019-06-25 03:34:56
gpio-sama5d2-piobu.c 6123 2019-06-25 03:34:56
gpio-sch.c 5287 2019-06-25 03:34:56
gpio-sch311x.c 11907 2019-06-25 03:34:56
gpio-siox.c 6926 2019-06-25 03:34:56
gpio-sodaville.c 5521 2021-08-29 15:04:50 -0700
gpio-spear-spics.c 5420 2019-06-25 03:34:56
gpio-sprd.c 8090 2019-06-25 03:34:56
gpio-sta2x11.c 11519 2019-06-25 03:34:56
gpio-stmpe.c 14108 2019-06-25 03:34:56
gpio-stp-xway.c 8605 2019-06-25 03:34:56
gpio-syscon.c 7689 2019-06-25 03:34:56
gpio-tb10x.c 7259 2019-06-25 03:34:56
gpio-tc3589x.c 9833 2019-06-25 03:34:56
gpio-tegra.c 19432 2019-06-25 03:34:56
gpio-tegra186.c 18706 2019-06-25 03:34:56
gpio-thunderx.c 17162 2019-06-25 03:34:56
gpio-timberdale.c 7651 2019-06-25 03:34:56
gpio-tpic2810.c 3969 2019-06-25 03:34:56
gpio-tps65086.c 3091 2019-06-25 03:34:56
gpio-tps65218.c 6331 2019-06-25 03:34:56
gpio-tps6586x.c 3392 2019-06-25 03:34:56
gpio-tps65910.c 5059 2019-06-25 03:34:56
gpio-tps65912.c 3497 2019-06-25 03:34:56
gpio-tps68470.c 4673 2019-06-25 03:34:56
gpio-tqmx86.c 8738 2019-06-25 03:34:56
gpio-ts4800.c 2171 2019-06-25 03:34:56
gpio-ts4900.c 4858 2019-06-25 03:34:56
gpio-ts5500.c 12194 2021-08-29 15:04:50 -0700
gpio-twl4030.c 15366 2019-06-25 03:34:56
gpio-twl6040.c 2854 2019-06-25 03:34:56
gpio-ucb1400.c 2449 2019-06-25 03:34:56
gpio-uniphier.c 13727 2019-06-25 03:34:56
gpio-vf610.c 9009 2019-06-25 03:34:56
gpio-viperboard.c 12153 2019-06-25 03:34:56
gpio-vr41xx.c 12016 2019-06-25 03:34:56
gpio-vx855.c 7266 2019-06-25 03:34:56
gpio-wcove.c 12802 2019-06-25 03:34:56
gpio-winbond.c 19287 2021-08-29 15:04:50 -0700
gpio-wm831x.c 7644 2019-06-25 03:34:56
gpio-wm8350.c 3985 2019-06-25 03:34:56
gpio-wm8994.c 7688 2019-06-25 03:34:56
gpio-ws16c48.c 14272 2019-06-25 03:34:56
gpio-xgene-sb.c 9886 2019-06-25 03:34:56
gpio-xgene.c 6494 2019-06-25 03:34:56
gpio-xilinx.c 11536 2019-06-25 03:34:56
gpio-xlp.c 12119 2019-06-25 03:34:56
gpio-xra1403.c 6365 2019-06-25 03:34:56
gpio-xtensa.c 4682 2019-06-25 03:34:56
gpio-zevio.c 6014 2019-06-25 03:34:56
gpio-zx.c 7576 2019-06-25 03:34:56
gpio-zynq.c 30012 2019-06-25 03:34:56
gpiolib-acpi.c 32399 2019-06-25 03:34:56
gpiolib-devprop.c 1487 2019-06-25 03:34:56
gpiolib-devres.c 13317 2019-06-25 03:34:56
gpiolib-legacy.c 2493 2021-08-29 15:04:50 -0700
gpiolib-of.c 18966 2019-06-25 03:34:56
gpiolib-sysfs.c 19893 2019-06-25 03:34:56
gpiolib.c 132453 2019-06-25 03:34:56
gpiolib.h 9837 2019-06-25 03:34:56